{"data":{"norad_id":68598,"epoch":"2026-05-24T19:49:24.953664Z","epoch_age_seconds":89540,"freshness":"FRESH","line1":"1 68598U 26072AB  26144.82598326  .00027642  00000+0  74328-3 0  9990","line2":"2 68598  51.8668 290.0661 0009328 301.3869  58.6204 15.37643717  7789","mean_motion":15.37643717,"eccentricity":0.0009328,"inclination_deg":51.8668,"raan_deg":290.0661,"arg_perigee_deg":301.3869,"mean_anomaly_deg":58.6204,"bstar":0.00074328,"rev_number":778,"period_min":93.649782721416,"perigee_km":446.70702361539,"apogee_km":459.45134052466,"semimajor_km":6831.21618207,"source":"CELESTRAK","updated_at":"2026-05-25T13:38:07.954820Z"}}